Miscellaneous Local Product
Issued by NWS North Platte, NE

Home | Current Version | Previous Version | Graphics & Text | Print | Product List | Glossary On
Versions: 1 2 3 4 5 6 7 8 9 10 11 12 13 14 15 16 17 18 19 20 21 22 23 24 25 26 27 28 29 30 31 32 33 34 35 36 37 38 39 40 41 42 43 44 45 46 47 48 49 50
000
AXUS43 KLBF 181810
MISLBF


WESTERN AND NORTH CENTRAL NEBRASKA HOURLY WEATHER ROUNDUP
NATIONAL WEATHER SERVICE NORTH PLATTE NE
1200 PM CST SAT NOV 18 2017

NOTE: "FAIR" INDICATES FEW OR NO CLOUDS BELOW 12,000 FEET WITH NO
SIGNIFICANT WEATHER AND/OR OBSTRUCTIONS TO VISIBILITY.

NOTE: STATIONS NOT REPORTING VARIABLES SUCH AS SKY/WEATHER OR
PRESSURE ARE PROVIDED BY RAWS AND APRS NETWORKS AND ARE NOT UNDER
NATIONAL WEATHER SERVICE QUALITY CONTROL.

...OBSERVATIONS IN AND NEAR THE EASTERN PANHANDLE OF NEBRASKA...

CITY           SKY/WX    TMP DP  RH WIND       PRES   REMARKS
PINE RIDGE     SUNNY     42  20  41 W15       30.18S
GORDON         FAIR      41  22  46 NW15G24   30.17S
CHADRON        SUNNY     42  19  39 NW17G25   30.22S
ALLIANCE       SUNNY     41  17  38 NW17      30.20R
SIDNEY         SUNNY     40  18  41 NW24G35   30.23S WCI  29
CRESCENT LAKE    N/A     41  17  38 NW16G26     N/A
$$

...OBSERVATIONS IN NORTHERN NEBRASKA AND FAR SOUTHERN SOUTH DAKOTA...

CITY           SKY/WX    TMP DP  RH WIND       PRES   REMARKS
WINNER         PTSUNNY   39  27  62 NW26G33   30.14R WCI  28
VALENTINE      SUNNY     43  24  47 NW23G36   30.13S
THEDFORD       SUNNY     43  26  50 NW23G30   30.15S
AINSWORTH      MOSUNNY   41  28  60 NW25G37   30.12S
O`NEILL        PTSUNNY   41  30  65 NW23G32   30.10R
ORD            SUNNY     45  29  53 N28G36    30.10R
BROKEN BOW     SUNNY     45  29  53 NW23G32   30.13R
VALENTINE NWR    N/A     39  25  58 NW20G28     N/A  WCI  29
HALSEY           N/A     42  26  52 NW15G26     N/A
BUTTE            N/A     35  27  73 NW20G31     N/A  WCI  24
CHAMBERS         N/A     43  28  54 S12         N/A
EWING            N/A     41  32  69 NW20G28     N/A
$$

...OBSERVATIONS IN SOUTHWEST NEBRASKA AND FAR NORTHEAST COLORADO...

CITY           SKY/WX    TMP DP  RH WIND       PRES   REMARKS
HOLYOKE        FAIR      45  18  33 NW24G31   30.23F
IMPERIAL       SUNNY     45  20  36 NW21G33   30.22S
OGALLALA       SUNNY     45  21  39 NW22G33   30.21F
NORTH PLATTE   SUNNY     47  25  42 NW22G31   30.18R
MCCOOK         SUNNY     47  29  49 NW21      30.20R
LEXINGTON      SUNNY     47  29  51 N20G31    30.15S
STAPLETON        N/A     42  27  54 NW7G16      N/A
GOTHENBURG       N/A     44  23  43 NW17        N/A
CALLAWAY         N/A     44  31  60 NW21        N/A
$$

...OBSERVATIONS IN CENTRAL LINCOLN COUNTY AREA...

CITY           SKY/WX    TMP DP  RH WIND       PRES   REMARKS
N.P. AIRPORT   SUNNY     47  25  42 NW22G31   30.18R
N.P. DOWNTOWN    N/A     44  26  49 NW8G15      N/A
N.P. SOUTHEAST   N/A     44  25  46 NW12G22     N/A
N.P. HILLCREST   N/A     44  26  48 NW22G35     N/A
$$

...SOME OBSERVATIONS FROM AROUND THE REGION...

CITY           SKY/WX    TMP DP  RH WIND       PRES   REMARKS
DENVER         MOSUNNY   38  18  44 S10       30.23S WCI  31
LIMON          SUNNY     36  17  46 N7        30.27S WCI  30
ASPEN          SUNNY     25  12  58 VRB3      30.40R
LARAMIE        SUNNY     26  12  55 SW24G32   30.20S WCI  11
CASPER         CLOUDY    28  19  69 SW18      30.24R WCI  15
CHEYENNE       SUNNY     33  14  45 NW16G25   30.22R WCI  23
SCOTTSBLUFF    SUNNY     42  16  34 W18G26    30.25R
GRAND ISLAND   SUNNY     47  32  56 NW26G39   30.09R
OMAHA          MOSUNNY   45  32  60 N23G35    29.97R
SIOUX FALLS    MOSUNNY   38  24  57 NW24G32   30.01R WCI  27
PIERRE         SUNNY     31  21  66 NW18      30.14S WCI  19
RAPID CITY     SUNNY     44  18  35 NW22G35   30.15S
BISMARCK       PTSUNNY   27  18  69 NW14      30.13S WCI  16
KANSAS CITY    CLOUDY    44  36  73 N18G28    29.90R
HILL CITY      SUNNY     50  32  50 N28G36    30.19R
WICHITA        CLOUDY    49  37  63 NW20G26   30.10R
DODGE CITY     SUNNY     50  28  42 N29G40    30.20R
OKLAHOMA CITY  PTSUNNY   50  37  61 N36G43    30.10R
DALLAS         MOSUNNY   70  42  36 N26G40    29.97R
AMARILLO       SUNNY     50  19  29 N30G39    30.28R
$$




USA.gov is the U.S. government's official web portal to all federal, state and local government web resources and services.